Weather Service Report


178 
ASUS45 KSLC 181610
RWRUT 

UTAH REGIONAL WEATHER ROUNDUP
NATIONAL WEATHER SERVICE SALT LAKE CITY UT
900 AM MST TUE DEC 18 2018

UTZ001>011-023>025-181700-

NORTHERN UTAH
  
CITY           SKY/WX    TMP DP  RH WIND       PRES   REMARKS
BRIGHAM CITY   MOCLDY    33  31  94 CALM      30.21R                  
DUGWAY         MOSUNNY   30  29  96 S1        30.18F                  
HILL AFB       MOCLDY    34  30  84 CALM      30.19R                  
LOGAN          CLOUDY    30  28  92 E3        30.18R FOG              
OGDEN          MOCLDY    33  30  88 SW6       30.16S FOG     WCI  28  
SALT LAKE CITY PTSUNNY   36  32  87 CALM      30.19R                  
TOOELE VALLEY  MOSUNNY   32  30  93 CALM      30.20R                  
WENDOVER       CLOUDY    25  21  85 W3        30.22R                  
HEBER CITY       N/A     30  28  93 CALM      30.18R                  
WEST JORDAN    PTSUNNY   35  32  88 S6        30.20R WCI  30          

$$

UTZ011>015-024>027-181700-

CENTRAL/NORTHEAST UTAH
  
CITY           SKY/WX    TMP DP  RH WIND       PRES   REMARKS
PROVO AIRPORT  PTSUNNY   31  30  96 NE3       30.22R                  
MOAB/CANYONLAN SUNNY     23  22  96 CALM      30.23R                  
DELTA          PTSUNNY   30  25  80 S5        30.21S WCI  25          
PRICE            N/A     28  23  81 CALM      30.18S                  
RICHFIELD      SUNNY     25  23  93 CALM      30.23R                  
ROOSEVELT      MOSUNNY   23  18  80 NE3       30.24S                  
VERNAL         MOSUNNY   19  15  84 CALM      30.23R                  

$$

UTZ013>016-019>022-027-181700-

SOUTHERN UTAH
  
CITY           SKY/WX    TMP DP  RH WIND       PRES   REMARKS
BRYCE CANYON   PTSUNNY   22  14  71 W5        30.23R WCI  16          
CEDAR CITY       N/A     27  22  81 CALM      30.22R                  
MILFORD        MOSUNNY   44  22  41 S14       30.21S                  
ST GEORGE      PTSUNNY   33  27  78 CALM      30.26R                  
HANKSVILLE     MOSUNNY   27  25  93 CALM      30.26R                  
KANAB          SUNNY     32  23  69 CALM      30.26S                  
BLANDING         N/A     35  25  67 CALM      30.25R                  

$$

REGIONAL REPORTS     COLORADO/ARIZONA
  
CITY           SKY/WX    TMP DP  RH WIND       PRES   REMARKS
CRAIG, CO      CLOUDY    27  21  78 E3        30.20R                  
GRAND JUNCTION PTSUNNY   30  23  75 CALM      30.23R                  
RIFLE, CO      CLOUDY    29  23  78 CALM      30.21R                  
MONTROSE, CO   SUNNY     27  20  75 CALM      30.23R                  
CORTEZ, CO     SUNNY     29  21  72 NE5       30.16R WCI  24          
COLORADO CITY    N/A     32  28  86 CALM      30.26R                  
PAGE, AZ       SUNNY     38  24  57 CALM      30.21R                  
GRAND CANYON   SUNNY     27  22  81 CALM      30.23S                  
KINGMAN, AZ    SUNNY     41  24  51 CALM      30.23R                  
FLAGSTAFF, AZ  SUNNY     28  26  92 CALM      30.22R                  

$$

REGIONAL REPORTS    NEVADA/IDAHO/WYOMING
  
CITY           SKY/WX    TMP DP  RH WIND       PRES   REMARKS
LAS VEGAS, NV  PTSUNNY   47  28  47 CALM      30.21R                  
ELY, NY        PTCLDY    22  18  85 S13       30.25R WCI  10          
ELKO, NV       CLOUDY    30  27  88 CALM      30.19R                  
POCATELLO, ID  PTCLDY    38  30  73 SW9       30.14R WCI  31          
BURLEY, ID     CLOUDY    38  29  70 SW10      30.13R WCI  31          
EVANSTON, WY   PTSUNNY   28  22  78 SW10      30.16R WCI  19          
ROCK SPRINGS,  SUNNY     28  23  81 W13       30.12S WCI  17          
KEMMERER, WY   MOSUNNY   28  25  86 W8        30.14R WCI  20          

$$
  

Return to Home page


Western Regional Climate Center, wrcc@dri.edu